Time,TemperatureF,DewpointF,PressureIn,WindDirection,WindDirectionDegrees,WindSpeedMPH,WindSpeedGustMPH,Humidity,HourlyPrecipIn,Conditions,Clouds,dailyrainin,SoftwareType,DateUTC
2013-03-22 00:00:00,20.1,4.0,29.64,West,268,0.0,0.0,49,0.00,,---,0.00,VWS V14.01,2013-03-22 06:00:00,
2013-03-22 00:01:00,20.1,4.0,29.64,West,268,0.0,0.0,49,0.00,,---,0.00,VWS V14.01,2013-03-22 06:01:00,
2013-03-22 00:02:00,19.9,3.9,29.64,West,268,0.0,0.0,49,0.00,,---,0.00,VWS V14.01,2013-03-22 06:02:00,
2013-03-22 00:03:00,19.8,3.7,29.64,West,268,0.0,0.0,49,0.00,,---,0.00,VWS V14.01,2013-03-22 06:03:00,
2013-03-22 00:04:00,19.8,3.3,29.64,West,268,0.0,0.0,48,0.00,,---,0.00,VWS V14.01,2013-03-22 06:04:00,
2013-03-22 00:05:00,19.8,3.3,29.64,West,268,0.0,0.0,48,0.00,,---,0.00,VWS V14.01,2013-03-22 06:05:00,
2013-03-22 00:06:00,19.6,3.1,29.64,West,268,0.0,0.0,48,0.00,,---,0.00,VWS V14.01,2013-03-22 06:06:00,
2013-03-22 00:07:00,19.6,3.1,29.64,West,268,0.0,0.0,48,0.00,,---,0.00,VWS V14.01,2013-03-22 06:07:00,
2013-03-22 00:08:00,19.6,3.1,29.64,West,268,0.0,0.0,48,0.00,,---,0.00,VWS V14.01,2013-03-22 06:08:00,
2013-03-22 00:09:00,19.6,3.1,29.64,West,268,0.0,0.0,48,0.00,,---,0.00,VWS V14.01,2013-03-22 06:09:00,
2013-03-22 00:10:00,19.6,3.1,29.64,West,268,0.0,0.0,48,0.00,,---,0.00,VWS V14.01,2013-03-22 06:10:00,
2013-03-22 00:11:00,19.6,3.1,29.64,West,268,0.0,0.0,48,0.00,,---,0.00,VWS V14.01,2013-03-22 06:11:00,
2013-03-22 00:12:00,19.6,3.1,29.64,West,268,0.0,0.0,48,0.00,,---,0.00,VWS V14.01,2013-03-22 06:12:00,
2013-03-22 00:13:00,19.6,3.1,29.64,West,268,0.0,0.0,48,0.00,,---,0.00,VWS V14.01,2013-03-22 06:13:00,
2013-03-22 00:14:00,19.6,3.1,29.64,West,268,0.0,0.0,48,0.00,,---,0.00,VWS V14.01,2013-03-22 06:14:00,
2013-03-22 00:15:00,19.6,3.1,29.64,West,268,0.0,0.0,48,0.00,,---,0.00,VWS V14.01,2013-03-22 06:15:00,
2013-03-22 00:16:00,19.6,3.1,29.64,West,268,0.0,0.0,48,0.00,,---,0.00,VWS V14.01,2013-03-22 06:16:00,
2013-03-22 00:17:00,19.6,3.5,29.64,West,268,0.0,0.0,49,0.00,,---,0.00,VWS V14.01,2013-03-22 06:17:00,
2013-03-22 00:18:00,19.6,3.5,29.64,West,268,0.0,0.0,49,0.00,,---,0.00,VWS V14.01,2013-03-22 06:18:00,
2013-03-22 00:19:00,19.4,3.4,29.64,West,268,0.0,0.0,49,0.00,,---,0.00,VWS V14.01,2013-03-22 06:19:00,
2013-03-22 00:20:00,19.4,3.8,29.61,West,268,0.0,0.0,50,0.00,,---,0.00,VWS V14.01,2013-03-22 06:20:00,
2013-03-22 00:21:00,19.4,3.8,29.61,West,268,0.0,0.0,50,0.00,,---,0.00,VWS V14.01,2013-03-22 06:21:00,
2013-03-22 00:22:00,19.2,4.1,29.61,West,268,0.0,0.0,51,0.00,,---,0.00,VWS V14.01,2013-03-22 06:22:00,
2013-03-22 00:23:00,19.2,4.1,29.61,West,268,0.0,0.0,51,0.00,,---,0.00,VWS V14.01,2013-03-22 06:23:00,
2013-03-22 00:24:00,19.0,3.9,29.61,West,268,0.0,0.0,51,0.00,,---,0.00,VWS V14.01,2013-03-22 06:24:00,
2013-03-22 00:25:00,19.0,3.9,29.61,West,268,0.0,0.0,51,0.00,,---,0.00,VWS V14.01,2013-03-22 06:25:00,
2013-03-22 00:26:00,19.0,3.9,29.61,West,268,0.0,0.0,51,0.00,,---,0.00,VWS V14.01,2013-03-22 06:26:00,
2013-03-22 00:27:00,18.9,4.2,29.61,West,268,0.0,0.0,52,0.00,,---,0.00,VWS V14.01,2013-03-22 06:27:00,
2013-03-22 00:28:00,18.9,4.2,29.61,West,268,0.0,0.0,52,0.00,,---,0.00,VWS V14.01,2013-03-22 06:28:00,
2013-03-22 00:29:00,18.7,4.0,29.61,West,268,0.0,0.0,52,0.00,,---,0.00,VWS V14.01,2013-03-22 06:29:00,
2013-03-22 00:30:00,18.7,4.0,29.61,West,268,0.0,0.0,52,0.00,,---,0.00,VWS V14.01,2013-03-22 06:30:00,
2013-03-22 00:31:00,18.7,4.0,29.61,West,268,0.0,0.0,52,0.00,,---,0.00,VWS V14.01,2013-03-22 06:31:00,
2013-03-22 00:32:00,18.7,4.0,29.61,West,268,0.0,0.0,52,0.00,,---,0.00,VWS V14.01,2013-03-22 06:32:00,
2013-03-22 00:33:00,18.5,3.8,29.61,West,268,0.0,0.0,52,0.00,,---,0.00,VWS V14.01,2013-03-22 06:33:00,
2013-03-22 00:34:00,18.5,3.8,29.61,West,268,0.0,0.0,52,0.00,,---,0.00,VWS V14.01,2013-03-22 06:34:00,
2013-03-22 00:35:00,18.5,3.8,29.64,West,268,0.0,0.0,52,0.00,,---,0.00,VWS V14.01,2013-03-22 06:35:00,
2013-03-22 00:36:00,18.5,3.8,29.64,West,268,0.0,0.0,52,0.00,,---,0.00,VWS V14.01,2013-03-22 06:36:00,
2013-03-22 00:37:00,18.3,3.7,29.64,West,268,0.0,0.0,52,0.00,,---,0.00,VWS V14.01,2013-03-22 06:37:00,
2013-03-22 00:38:00,18.3,3.7,29.64,West,268,0.0,0.0,52,0.00,,---,0.00,VWS V14.01,2013-03-22 06:38:00,
2013-03-22 00:39:00,18.3,3.7,29.64,West,268,0.0,0.0,52,0.00,,---,0.00,VWS V14.01,2013-03-22 06:39:00,
2013-03-22 00:40:00,18.3,3.7,29.64,West,268,0.0,0.0,52,0.00,,---,0.00,VWS V14.01,2013-03-22 06:40:00,
2013-03-22 00:41:00,18.3,3.7,29.64,West,268,0.0,0.0,52,0.00,,---,0.00,VWS V14.01,2013-03-22 06:41:00,
2013-03-22 00:42:00,18.1,3.5,29.64,West,268,0.0,0.0,52,0.00,,---,0.00,VWS V14.01,2013-03-22 06:42:00,
2013-03-22 00:43:00,18.1,3.5,29.64,West,268,0.0,0.0,52,0.00,,---,0.00,VWS V14.01,2013-03-22 06:43:00,
2013-03-22 00:44:00,18.1,3.1,29.64,West,268,0.0,0.0,51,0.00,,---,0.00,VWS V14.01,2013-03-22 06:44:00,
2013-03-22 00:45:00,18.1,3.1,29.64,West,268,0.0,0.0,51,0.00,,---,0.00,VWS V14.01,2013-03-22 06:45:00,
2013-03-22 00:46:00,18.1,3.1,29.64,West,268,0.0,0.0,51,0.00,,---,0.00,VWS V14.01,2013-03-22 06:46:00,
2013-03-22 00:47:00,18.1,3.1,29.64,West,268,0.0,0.0,51,0.00,,---,0.00,VWS V14.01,2013-03-22 06:47:00,
2013-03-22 00:48:00,18.3,3.2,29.64,West,268,0.0,0.0,51,0.00,,---,0.00,VWS V14.01,2013-03-22 06:48:00,
2013-03-22 00:49:00,18.3,3.2,29.64,West,268,0.0,0.0,51,0.00,,---,0.00,VWS V14.01,2013-03-22 06:49:00,
2013-03-22 00:50:00,18.3,3.2,29.64,West,268,0.0,0.0,51,0.00,,---,0.00,VWS V14.01,2013-03-22 06:50:00,
2013-03-22 00:51:00,18.3,3.2,29.64,West,268,0.0,0.0,51,0.00,,---,0.00,VWS V14.01,2013-03-22 06:51:00,
2013-03-22 00:52:00,18.3,4.1,29.64,West,268,0.0,0.0,53,0.00,,---,0.00,VWS V14.01,2013-03-22 06:52:00,
2013-03-22 00:53:00,18.3,4.1,29.64,West,268,0.0,0.0,53,0.00,,---,0.00,VWS V14.01,2013-03-22 06:53:00,
2013-03-22 00:54:00,18.3,4.1,29.64,West,268,0.0,0.0,53,0.00,,---,0.00,VWS V14.01,2013-03-22 06:54:00,
2013-03-22 00:55:00,18.3,4.1,29.64,West,268,0.0,0.0,53,0.00,,---,0.00,VWS V14.01,2013-03-22 06:55:00,
2013-03-22 00:56:00,18.3,4.1,29.64,West,268,0.0,0.0,53,0.00,,---,0.00,VWS V14.01,2013-03-22 06:56:00,
2013-03-22 00:57:00,18.1,3.9,29.64,West,268,0.0,0.0,53,0.00,,---,0.00,VWS V14.01,2013-03-22 06:57:00,
2013-03-22 00:58:00,18.1,3.9,29.64,West,268,0.0,0.0,53,0.00,,---,0.00,VWS V14.01,2013-03-22 06:58:00,
2013-03-22 00:59:00,18.1,3.9,29.64,West,268,0.0,0.0,53,0.00,,---,0.00,VWS V14.01,2013-03-22 06:59:00,
2013-03-22 01:00:00,18.1,3.9,29.64,West,268,0.0,0.0,53,0.00,,---,0.00,VWS V14.01,2013-03-22 07:00:00,
2013-03-22 01:01:00,18.1,3.9,29.64,West,268,0.0,0.0,53,0.00,,---,0.00,VWS V14.01,2013-03-22 07:01:00,
2013-03-22 01:02:00,18.1,3.9,29.64,West,268,0.0,0.0,53,0.00,,---,0.00,VWS V14.01,2013-03-22 07:02:00,
2013-03-22 01:03:00,18.3,4.1,29.64,West,268,0.0,0.0,53,0.00,,---,0.00,VWS V14.01,2013-03-22 07:03:00,
2013-03-22 01:04:00,18.3,4.1,29.64,West,268,0.0,0.0,53,0.00,,---,0.00,VWS V14.01,2013-03-22 07:04:00,
2013-03-22 01:05:00,18.3,4.1,29.64,West,268,0.0,0.0,53,0.00,,---,0.00,VWS V14.01,2013-03-22 07:05:00,
2013-03-22 01:06:00,18.3,4.5,29.64,West,268,0.0,0.0,54,0.00,,---,0.00,VWS V14.01,2013-03-22 07:06:00,
2013-03-22 01:07:00,18.3,4.5,29.64,West,268,0.0,0.0,54,0.00,,---,0.00,VWS V14.01,2013-03-22 07:07:00,
2013-03-22 01:08:00,18.3,4.5,29.64,West,268,0.0,0.0,54,0.00,,---,0.00,VWS V14.01,2013-03-22 07:08:00,
2013-03-22 01:09:00,18.3,4.5,29.64,West,268,0.0,0.0,54,0.00,,---,0.00,VWS V14.01,2013-03-22 07:09:00,
2013-03-22 01:10:00,18.3,4.5,29.64,West,268,0.0,0.0,54,0.00,,---,0.00,VWS V14.01,2013-03-22 07:10:00,
2013-03-22 01:11:00,18.3,4.9,29.64,West,268,0.0,0.0,55,0.00,,---,0.00,VWS V14.01,2013-03-22 07:11:00,
2013-03-22 01:12:00,18.3,4.9,29.64,West,268,0.0,0.0,55,0.00,,---,0.00,VWS V14.01,2013-03-22 07:12:00,
2013-03-22 01:13:00,18.3,4.9,29.64,West,268,0.0,0.0,55,0.00,,---,0.00,VWS V14.01,2013-03-22 07:13:00,
2013-03-22 01:14:00,18.3,4.9,29.64,West,268,0.0,0.0,55,0.00,,---,0.00,VWS V14.01,2013-03-22 07:14:00,
2013-03-22 01:15:00,18.3,4.9,29.64,West,268,0.0,0.0,55,0.00,,---,0.00,VWS V14.01,2013-03-22 07:15:00,
2013-03-22 01:16:00,18.3,4.9,29.64,West,268,0.0,0.0,55,0.00,,---,0.00,VWS V14.01,2013-03-22 07:16:00,
2013-03-22 01:17:00,18.3,4.9,29.64,West,268,0.0,0.0,55,0.00,,---,0.00,VWS V14.01,2013-03-22 07:17:00,
2013-03-22 01:18:00,18.5,5.0,29.64,West,268,0.0,0.0,55,0.00,,---,0.00,VWS V14.01,2013-03-22 07:18:00,
2013-03-22 01:19:00,18.5,5.0,29.64,West,268,0.0,0.0,55,0.00,,---,0.00,VWS V14.01,2013-03-22 07:19:00,
2013-03-22 01:20:00,18.5,5.0,29.64,West,268,0.0,0.0,55,0.00,,---,0.00,VWS V14.01,2013-03-22 07:20:00,
2013-03-22 01:21:00,18.5,5.0,29.64,West,268,0.0,0.0,55,0.00,,---,0.00,VWS V14.01,2013-03-22 07:21:00,
2013-03-22 01:22:00,18.5,5.0,29.64,West,268,0.0,0.0,55,0.00,,---,0.00,VWS V14.01,2013-03-22 07:22:00,
2013-03-22 01:23:00,18.5,5.0,29.64,West,268,0.0,0.0,55,0.00,,---,0.00,VWS V14.01,2013-03-22 07:23:00,
2013-03-22 01:24:00,18.5,5.0,29.64,West,268,0.0,0.0,55,0.00,,---,0.00,VWS V14.01,2013-03-22 07:24:00,
2013-03-22 01:25:00,18.7,5.2,29.64,West,268,0.0,0.0,55,0.00,,---,0.00,VWS V14.01,2013-03-22 07:25:00,
2013-03-22 01:26:00,18.7,5.2,29.64,West,268,0.0,0.0,55,0.00,,---,0.00,VWS V14.01,2013-03-22 07:26:00,
2013-03-22 01:27:00,18.7,5.2,29.64,West,268,0.0,0.0,55,0.00,,---,0.00,VWS V14.01,2013-03-22 07:27:00,
2013-03-22 01:28:00,18.7,5.2,29.64,West,268,0.0,0.0,55,0.00,,---,0.00,VWS V14.01,2013-03-22 07:28:00,
2013-03-22 01:29:00,18.7,5.2,29.64,West,268,0.0,0.0,55,0.00,,---,0.00,VWS V14.01,2013-03-22 07:29:00,
2013-03-22 01:30:00,18.7,5.2,29.64,West,268,0.0,0.0,55,0.00,,---,0.00,VWS V14.01,2013-03-22 07:30:00,
2013-03-22 01:31:00,18.7,5.2,29.64,West,268,0.0,0.0,55,0.00,,---,0.00,VWS V14.01,2013-03-22 07:31:00,
2013-03-22 01:32:00,18.7,5.2,29.64,West,268,0.0,0.0,55,0.00,,---,0.00,VWS V14.01,2013-03-22 07:32:00,
2013-03-22 01:33:00,18.7,5.2,29.64,West,268,0.0,0.0,55,0.00,,---,0.00,VWS V14.01,2013-03-22 07:33:00,
2013-03-22 01:34:00,18.7,5.2,29.64,West,268,0.0,0.0,55,0.00,,---,0.00,VWS V14.01,2013-03-22 07:34:00,
2013-03-22 01:35:00,18.7,5.2,29.64,West,268,0.0,0.0,55,0.00,,---,0.00,VWS V14.01,2013-03-22 07:35:00,
2013-03-22 01:36:00,18.9,5.4,29.64,West,268,0.0,0.0,55,0.00,,---,0.00,VWS V14.01,2013-03-22 07:36:00,
2013-03-22 01:37:00,19.0,5.5,29.64,West,268,0.0,0.0,55,0.00,,---,0.00,VWS V14.01,2013-03-22 07:37:00,
2013-03-22 01:38:00,19.0,5.6,29.64,West,268,0.0,0.0,55,0.00,,---,0.00,VWS V14.01,2013-03-22 07:38:00,
2013-03-22 01:39:00,19.0,5.6,29.64,West,268,0.0,0.0,55,0.00,,---,0.00,VWS V14.01,2013-03-22 07:39:00,
2013-03-22 01:40:00,19.2,5.7,29.64,West,268,0.0,0.0,55,0.00,,---,0.00,VWS V14.01,2013-03-22 07:40:00,
2013-03-22 01:41:00,19.2,5.7,29.64,West,268,0.0,0.0,55,0.00,,---,0.00,VWS V14.01,2013-03-22 07:41:00,
2013-03-22 01:42:00,19.2,5.7,29.64,West,268,0.0,0.0,55,0.00,,---,0.00,VWS V14.01,2013-03-22 07:42:00,
2013-03-22 01:43:00,19.4,5.9,29.64,West,268,0.0,0.0,55,0.00,,---,0.00,VWS V14.01,2013-03-22 07:43:00,
2013-03-22 01:44:00,19.4,5.9,29.64,West,268,0.0,0.0,55,0.00,,---,0.00,VWS V14.01,2013-03-22 07:44:00,
2013-03-22 01:45:00,19.4,5.9,29.64,West,268,0.0,0.0,55,0.00,,---,0.00,VWS V14.01,2013-03-22 07:45:00,
2013-03-22 01:46:00,19.6,6.1,29.64,West,268,0.0,0.0,55,0.00,,---,0.00,VWS V14.01,2013-03-22 07:46:00,
2013-03-22 01:47:00,19.8,6.2,29.64,West,268,0.0,0.0,55,0.00,,---,0.00,VWS V14.01,2013-03-22 07:47:00,
2013-03-22 01:48:00,19.8,6.2,29.64,West,268,0.0,0.0,55,0.00,,---,0.00,VWS V14.01,2013-03-22 07:48:00,
2013-03-22 01:49:00,19.8,6.2,29.64,West,268,0.0,0.0,55,0.00,,---,0.00,VWS V14.01,2013-03-22 07:49:00,
2013-03-22 01:50:00,19.9,6.4,29.64,West,268,0.0,0.0,55,0.00,,---,0.00,VWS V14.01,2013-03-22 07:50:00,
2013-03-22 01:51:00,20.1,6.6,29.64,West,268,0.0,0.0,55,0.00,,---,0.00,VWS V14.01,2013-03-22 07:51:00,
2013-03-22 01:52:00,20.3,6.7,29.64,West,268,0.0,0.0,55,0.00,,---,0.00,VWS V14.01,2013-03-22 07:52:00,
2013-03-22 01:53:00,20.3,6.7,29.64,West,268,0.0,0.0,55,0.00,,---,0.00,VWS V14.01,2013-03-22 07:53:00,
2013-03-22 01:54:00,20.3,6.7,29.64,West,268,0.0,0.0,55,0.00,,---,0.00,VWS V14.01,2013-03-22 07:54:00,
2013-03-22 01:55:00,20.3,6.7,29.64,West,268,0.0,0.0,55,0.00,,---,0.00,VWS V14.01,2013-03-22 07:55:00,
2013-03-22 01:56:00,20.5,6.9,29.64,West,268,0.0,0.0,55,0.00,,---,0.00,VWS V14.01,2013-03-22 07:56:00,
2013-03-22 01:57:00,20.5,6.9,29.64,West,268,0.0,0.0,55,0.00,,---,0.00,VWS V14.01,2013-03-22 07:57:00,
2013-03-22 01:58:00,20.5,6.9,29.64,West,268,0.0,0.0,55,0.00,,---,0.00,VWS V14.01,2013-03-22 07:58:00,
2013-03-22 01:59:00,20.5,6.9,29.64,West,268,0.0,0.0,55,0.00,,---,0.00,VWS V14.01,2013-03-22 07:59:00,
2013-03-22 02:00:00,20.5,6.9,29.64,West,268,0.0,0.0,55,0.00,,---,0.00,VWS V14.01,2013-03-22 08:00:00,
2013-03-22 02:01:00,20.7,7.1,29.64,West,268,0.0,0.0,55,0.00,,---,0.00,VWS V14.01,2013-03-22 08:01:00,
2013-03-22 02:02:00,20.7,7.1,29.64,West,268,0.0,0.0,55,0.00,,---,0.00,VWS V14.01,2013-03-22 08:02:00,
2013-03-22 02:03:00,20.7,7.1,29.64,West,271,0.0,0.0,55,0.00,,---,0.00,VWS V14.01,2013-03-22 08:03:00,
2013-03-22 02:04:00,20.7,7.1,29.64,West,271,0.0,0.0,55,0.00,,---,0.00,VWS V14.01,2013-03-22 08:04:00,
2013-03-22 02:05:00,20.8,7.2,29.64,West,271,0.0,0.0,55,0.00,,---,0.00,VWS V14.01,2013-03-22 08:05:00,
2013-03-22 02:06:00,20.8,7.2,29.64,West,271,0.0,0.0,55,0.00,,---,0.00,VWS V14.01,2013-03-22 08:06:00,
2013-03-22 02:07:00,21.0,7.4,29.64,West,270,0.0,0.0,55,0.00,,---,0.00,VWS V14.01,2013-03-22 08:07:00,
2013-03-22 02:08:00,21.0,7.4,29.64,West,270,0.0,0.0,55,0.00,,---,0.00,VWS V14.01,2013-03-22 08:08:00,
2013-03-22 02:09:00,21.0,7.0,29.64,West,273,0.0,0.0,54,0.00,,---,0.00,VWS V14.01,2013-03-22 08:09:00,
2013-03-22 02:10:00,21.2,7.2,29.64,West,271,0.0,0.0,54,0.00,,---,0.00,VWS V14.01,2013-03-22 08:10:00,
2013-03-22 02:11:00,21.2,7.2,29.64,West,261,0.0,2.2,54,0.00,,---,0.00,VWS V14.01,2013-03-22 08:11:00,
2013-03-22 02:12:00,21.2,7.2,29.64,West,262,0.0,2.2,54,0.00,,---,0.00,VWS V14.01,2013-03-22 08:12:00,
2013-03-22 02:13:00,21.2,7.2,29.64,West,274,3.6,3.6,54,0.00,,---,0.00,VWS V14.01,2013-03-22 08:13:00,
2013-03-22 02:14:00,21.4,7.3,29.64,West,276,2.7,3.6,54,0.00,,---,0.00,VWS V14.01,2013-03-22 08:14:00,
2013-03-22 02:15:00,21.4,6.9,29.64,West,264,2.7,3.1,53,0.00,,---,0.00,VWS V14.01,2013-03-22 08:15:00,
2013-03-22 02:16:00,21.4,6.9,29.64,West,276,0.0,3.1,53,0.00,,---,0.00,VWS V14.01,2013-03-22 08:16:00,
2013-03-22 02:17:00,21.6,7.1,29.64,West,276,0.0,0.0,53,0.00,,---,0.00,VWS V14.01,2013-03-22 08:17:00,
2013-03-22 02:18:00,21.6,7.1,29.64,West,276,0.0,0.0,53,0.00,,---,0.00,VWS V14.01,2013-03-22 08:18:00,
2013-03-22 02:19:00,21.6,7.1,29.64,West,276,0.0,0.0,53,0.00,,---,0.00,VWS V14.01,2013-03-22 08:19:00,
2013-03-22 02:20:00,21.6,7.1,29.61,West,276,0.0,0.0,53,0.00,,---,0.00,VWS V14.01,2013-03-22 08:20:00,
2013-03-22 02:21:00,21.6,7.1,29.61,West,276,0.0,0.0,53,0.00,,---,0.00,VWS V14.01,2013-03-22 08:21:00,
2013-03-22 02:22:00,21.6,7.1,29.61,West,276,0.0,0.0,53,0.00,,---,0.00,VWS V14.01,2013-03-22 08:22:00,
2013-03-22 02:23:00,21.6,7.1,29.61,West,276,0.0,0.0,53,0.00,,---,0.00,VWS V14.01,2013-03-22 08:23:00,
2013-03-22 02:24:00,21.6,7.1,29.61,WSW,243,3.6,4.0,53,0.00,,---,0.00,VWS V14.01,2013-03-22 08:24:00,
2013-03-22 02:25:00,21.6,7.1,29.61,West,266,2.7,4.9,53,0.00,,---,0.00,VWS V14.01,2013-03-22 08:25:00,
2013-03-22 02:26:00,21.6,7.1,29.61,West,269,2.7,2.7,53,0.00,,---,0.00,VWS V14.01,2013-03-22 08:26:00,
2013-03-22 02:27:00,21.6,7.1,29.61,WSW,238,2.7,3.6,53,0.00,,---,0.00,VWS V14.01,2013-03-22 08:27:00,
2013-03-22 02:28:00,21.6,7.1,29.61,WSW,238,2.7,3.6,53,0.00,,---,0.00,VWS V14.01,2013-03-22 08:28:00,
2013-03-22 02:29:00,21.4,6.5,29.61,WSW,237,3.6,4.0,52,0.00,,---,0.00,VWS V14.01,2013-03-22 08:29:00,
2013-03-22 02:30:00,21.4,6.5,29.61,SW,236,2.7,3.6,52,0.00,,---,0.00,VWS V14.01,2013-03-22 08:30:00,
2013-03-22 02:31:00,21.4,6.5,29.61,WSW,242,0.0,3.6,52,0.00,,---,0.00,VWS V14.01,2013-03-22 08:31:00,
2013-03-22 02:32:00,21.4,6.5,29.61,WSW,242,0.0,0.0,52,0.00,,---,0.00,VWS V14.01,2013-03-22 08:32:00,
2013-03-22 02:33:00,21.4,6.5,29.61,WSW,242,0.0,0.0,52,0.00,,---,0.00,VWS V14.01,2013-03-22 08:33:00,
2013-03-22 02:34:00,21.4,6.5,29.61,WSW,241,3.1,3.6,52,0.00,,---,0.00,VWS V14.01,2013-03-22 08:34:00,
2013-03-22 02:36:00,21.2,6.8,29.61,WSW,241,4.0,4.0,53,0.00,,---,0.00,VWS V14.01,2013-03-22 08:36:00,
2013-03-22 02:37:00,21.2,6.8,29.61,WSW,243,0.0,2.7,53,0.00,,---,0.00,VWS V14.01,2013-03-22 08:37:00,
2013-03-22 02:38:00,21.2,6.8,29.61,WSW,243,0.0,2.7,53,0.00,,---,0.00,VWS V14.01,2013-03-22 08:38:00,
2013-03-22 02:39:00,21.2,6.8,29.61,WSW,243,0.0,0.0,53,0.00,,---,0.00,VWS V14.01,2013-03-22 08:39:00,
2013-03-22 02:40:00,21.2,6.8,29.61,WSW,243,0.0,0.0,53,0.00,,---,0.00,VWS V14.01,2013-03-22 08:40:00,
2013-03-22 02:41:00,21.2,6.8,29.61,WSW,243,0.0,0.0,53,0.00,,---,0.00,VWS V14.01,2013-03-22 08:41:00,
2013-03-22 02:42:00,21.2,6.8,29.61,WSW,243,0.0,0.0,53,0.00,,---,0.00,VWS V14.01,2013-03-22 08:42:00,
2013-03-22 02:43:00,21.2,6.8,29.61,WSW,243,0.0,0.0,53,0.00,,---,0.00,VWS V14.01,2013-03-22 08:43:00,
2013-03-22 02:44:00,21.0,6.6,29.61,WSW,243,0.0,0.0,53,0.00,,---,0.00,VWS V14.01,2013-03-22 08:44:00,
2013-03-22 02:45:00,21.0,6.6,29.61,WSW,243,0.0,0.0,53,0.00,,---,0.00,VWS V14.01,2013-03-22 08:45:00,
2013-03-22 02:46:00,21.0,6.6,29.61,WSW,243,0.0,0.0,53,0.00,,---,0.00,VWS V14.01,2013-03-22 08:46:00,
2013-03-22 02:47:00,20.8,6.4,29.61,WSW,243,0.0,0.0,53,0.00,,---,0.00,VWS V14.01,2013-03-22 08:47:00,
2013-03-22 02:48:00,20.8,6.4,29.61,WSW,243,0.0,0.0,53,0.00,,---,0.00,VWS V14.01,2013-03-22 08:48:00,
2013-03-22 02:49:00,20.8,6.4,29.61,WSW,243,0.0,0.0,53,0.00,,---,0.00,VWS V14.01,2013-03-22 08:49:00,
2013-03-22 02:50:00,20.8,6.4,29.61,WSW,243,0.0,0.0,53,0.00,,---,0.00,VWS V14.01,2013-03-22 08:50:00,
2013-03-22 02:51:00,20.7,6.2,29.61,WSW,243,0.0,0.0,53,0.00,,---,0.00,VWS V14.01,2013-03-22 08:51:00,
2013-03-22 02:52:00,20.7,6.2,29.61,WSW,243,0.0,0.0,53,0.00,,---,0.00,VWS V14.01,2013-03-22 08:52:00,
2013-03-22 02:53:00,20.7,6.2,29.61,WSW,243,0.0,0.0,53,0.00,,---,0.00,VWS V14.01,2013-03-22 08:53:00,
2013-03-22 02:54:00,20.5,6.1,29.61,WSW,243,0.0,0.0,53,0.00,,---,0.00,VWS V14.01,2013-03-22 08:54:00,
2013-03-22 02:55:00,20.5,6.1,29.61,WSW,243,0.0,0.0,53,0.00,,---,0.00,VWS V14.01,2013-03-22 08:55:00,
2013-03-22 02:56:00,20.5,6.1,29.61,WSW,242,2.7,2.7,53,0.00,,---,0.00,VWS V14.01,2013-03-22 08:56:00,
2013-03-22 02:57:00,20.3,5.9,29.61,WSW,242,0.0,0.0,53,0.00,,---,0.00,VWS V14.01,2013-03-22 08:57:00,
2013-03-22 02:58:00,20.3,5.9,29.61,WSW,242,0.0,0.0,53,0.00,,---,0.00,VWS V14.01,2013-03-22 08:58:00,
2013-03-22 02:59:00,20.3,5.9,29.61,WSW,243,0.0,0.0,53,0.00,,---,0.00,VWS V14.01,2013-03-22 08:59:00,
2013-03-22 03:00:00,20.3,5.9,29.61,WSW,242,0.0,0.0,53,0.00,,---,0.00,VWS V14.01,2013-03-22 09:00:00,
2013-03-22 03:01:00,20.1,5.7,29.61,WSW,242,0.0,0.0,53,0.00,,---,0.00,VWS V14.01,2013-03-22 09:01:00,
2013-03-22 03:02:00,19.9,6.0,29.61,WSW,242,0.0,0.0,54,0.00,,---,0.00,VWS V14.01,2013-03-22 09:02:00,
2013-03-22 03:03:00,19.9,6.0,29.61,WSW,242,0.0,0.0,54,0.00,,---,0.00,VWS V14.01,2013-03-22 09:03:00,
2013-03-22 03:04:00,19.8,5.8,29.61,WSW,242,0.0,0.0,54,0.00,,---,0.00,VWS V14.01,2013-03-22 09:04:00,
2013-03-22 03:05:00,19.8,5.8,29.61,WSW,242,0.0,0.0,54,0.00,,---,0.00,VWS V14.01,2013-03-22 09:05:00,
2013-03-22 03:06:00,19.8,5.8,29.61,WSW,242,2.7,3.1,54,0.00,,---,0.00,VWS V14.01,2013-03-22 09:06:00,
2013-03-22 03:07:00,19.8,5.8,29.61,WSW,241,3.6,3.6,54,0.00,,---,0.00,VWS V14.01,2013-03-22 09:07:00,
2013-03-22 03:08:00,19.6,5.7,29.61,WSW,241,3.6,3.6,54,0.00,,---,0.00,VWS V14.01,2013-03-22 09:08:00,
2013-03-22 03:09:00,19.6,5.7,29.61,WSW,247,3.6,4.0,54,0.00,,---,0.00,VWS V14.01,2013-03-22 09:09:00,
2013-03-22 03:10:00,19.6,5.7,29.61,SW,229,5.8,5.8,54,0.00,,---,0.00,VWS V14.01,2013-03-22 09:10:00,
2013-03-22 03:11:00,19.6,5.7,29.61,SW,227,5.4,6.3,54,0.00,,---,0.00,VWS V14.01,2013-03-22 09:11:00,
2013-03-22 03:12:00,19.6,5.7,29.61,WSW,252,3.6,4.0,54,0.00,,---,0.00,VWS V14.01,2013-03-22 09:12:00,
2013-03-22 03:13:00,19.6,5.7,29.61,WSW,252,3.6,4.0,54,0.00,,---,0.00,VWS V14.01,2013-03-22 09:13:00,
2013-03-22 03:14:00,19.6,5.7,29.61,WSW,240,6.3,6.3,54,0.00,,---,0.00,VWS V14.01,2013-03-22 09:14:00,
2013-03-22 03:15:00,19.6,5.7,29.61,WSW,248,3.1,6.3,54,0.00,,---,0.00,VWS V14.01,2013-03-22 09:15:00,
2013-03-22 03:16:00,19.6,6.1,29.61,West,267,3.1,6.3,55,0.00,,---,0.00,VWS V14.01,2013-03-22 09:16:00,
2013-03-22 06:22:00,16.7,3.7,0.00,WSW,244,4.0,4.0,56,0.00,,---,0.00,VWS V14.01,2013-03-22 12:22:00,
2013-03-22 06:27:00,16.3,3.4,29.61,SW,219,5.4,5.4,56,0.00,,---,0.00,VWS V14.01,2013-03-22 12:27:00,
2013-03-22 06:32:00,16.5,4.0,29.61,SSW,201,3.1,3.1,57,0.00,,---,0.00,VWS V14.01,2013-03-22 12:32:00,
2013-03-22 06:37:00,16.2,3.6,29.61,SSW,197,4.9,4.9,57,0.00,,---,0.00,VWS V14.01,2013-03-22 12:37:00,
2013-03-22 06:42:00,16.2,3.6,29.61,South,189,2.2,2.7,57,0.00,,---,0.00,VWS V14.01,2013-03-22 12:42:00,
2013-03-22 06:47:00,16.9,4.3,29.61,WSW,243,0.0,0.0,57,0.00,,---,0.00,VWS V14.01,2013-03-22 12:47:00,
2013-03-22 06:52:00,17.2,4.6,29.61,SW,235,3.1,3.1,57,0.00,,---,0.00,VWS V14.01,2013-03-22 12:52:00,
2013-03-22 06:57:00,17.1,4.1,29.61,WSW,251,2.7,3.1,56,0.00,,---,0.00,VWS V14.01,2013-03-22 12:57:00,
2013-03-22 07:02:00,17.1,4.1,29.61,West,268,0.0,0.0,56,0.00,,---,0.00,VWS V14.01,2013-03-22 13:02:00,
2013-03-22 07:07:00,16.9,3.9,29.61,SSW,213,2.7,3.1,56,0.00,,---,0.00,VWS V14.01,2013-03-22 13:07:00,
2013-03-22 07:12:00,16.5,3.6,29.61,SW,222,6.3,6.3,56,0.00,,---,0.00,VWS V14.01,2013-03-22 13:12:00,
2013-03-22 07:17:00,16.2,3.6,29.61,SW,234,3.1,3.1,57,0.00,,---,0.00,VWS V14.01,2013-03-22 13:17:00,
2013-03-22 07:22:00,16.0,3.5,29.61,SW,225,4.0,5.8,57,0.00,,---,0.00,VWS V14.01,2013-03-22 13:22:00,
2013-03-22 07:27:00,16.2,3.6,29.61,SW,214,0.0,3.6,57,0.00,,---,0.00,VWS V14.01,2013-03-22 13:27:00,
2013-03-22 07:32:00,16.2,3.6,29.61,SW,214,0.0,0.0,57,0.00,,---,0.00,VWS V14.01,2013-03-22 13:32:00,
2013-03-22 07:37:00,16.2,3.6,29.61,SW,214,0.0,0.0,57,0.00,,---,0.00,VWS V14.01,2013-03-22 13:37:00,
2013-03-22 07:42:00,16.3,3.8,29.61,West,270,0.0,0.0,57,0.00,,---,0.00,VWS V14.01,2013-03-22 13:42:00,
2013-03-22 07:47:00,16.0,3.1,29.61,West,273,0.0,0.0,56,0.00,,---,0.00,VWS V14.01,2013-03-22 13:47:00,
2013-03-22 07:52:00,15.8,2.9,29.64,West,273,0.0,0.0,56,0.00,,---,0.00,VWS V14.01,2013-03-22 13:52:00,
2013-03-22 07:57:00,15.8,2.9,29.64,WNW,291,0.0,0.0,56,0.00,,---,0.00,VWS V14.01,2013-03-22 13:57:00,
2013-03-22 08:02:00,15.8,2.9,29.64,West,281,0.0,0.0,56,0.00,,---,0.00,VWS V14.01,2013-03-22 14:02:00,
2013-03-22 08:07:00,16.0,3.1,29.64,SW,235,2.7,2.7,56,0.00,,---,0.00,VWS V14.01,2013-03-22 14:07:00,
2013-03-22 08:12:00,16.2,3.2,29.64,West,261,3.1,4.0,56,0.00,,---,0.00,VWS V14.01,2013-03-22 14:12:00,
2013-03-22 08:17:00,16.2,3.2,29.64,WSW,240,3.1,4.9,56,0.00,,---,0.00,VWS V14.01,2013-03-22 14:17:00,
2013-03-22 08:22:00,16.5,3.6,29.64,West,263,4.9,5.4,56,0.00,,---,0.00,VWS V14.01,2013-03-22 14:22:00,
2013-03-22 08:27:00,16.7,3.3,29.64,West,268,2.7,2.7,55,0.00,,---,0.00,VWS V14.01,2013-03-22 14:27:00,
2013-03-22 08:32:00,16.9,3.5,29.64,WNW,292,2.7,3.1,55,0.00,,---,0.00,VWS V14.01,2013-03-22 14:32:00,
2013-03-22 08:37:00,17.2,3.9,29.64,WNW,295,2.2,3.6,55,0.00,,---,0.00,VWS V14.01,2013-03-22 14:37:00,
2013-03-22 08:42:00,17.6,4.2,29.64,West,267,3.1,3.1,55,0.00,,---,0.00,VWS V14.01,2013-03-22 14:42:00,
2013-03-22 08:47:00,17.8,4.0,29.64,WSW,239,4.5,4.9,54,0.00,,---,0.00,VWS V14.01,2013-03-22 14:47:00,
2013-03-22 08:52:00,18.1,4.3,29.61,SW,221,4.9,4.9,54,0.00,,---,0.00,VWS V14.01,2013-03-22 14:52:00,
2013-03-22 08:57:00,18.5,4.6,29.61,West,264,3.6,4.9,54,0.00,,---,0.00,VWS V14.01,2013-03-22 14:57:00,
2013-03-22 09:02:00,19.2,4.9,29.61,West,269,2.7,3.6,53,0.00,,---,0.00,VWS V14.01,2013-03-22 15:02:00,
2013-03-22 09:07:00,19.4,5.1,29.61,WSW,238,2.2,4.9,53,0.00,,---,0.00,VWS V14.01,2013-03-22 15:07:00,
2013-03-22 09:12:00,19.9,5.6,29.61,WSW,249,2.2,4.0,53,0.00,,---,0.00,VWS V14.01,2013-03-22 15:12:00,
2013-03-22 09:17:00,20.3,5.5,29.61,WSW,258,2.7,4.9,52,0.00,,---,0.00,VWS V14.01,2013-03-22 15:17:00,
2013-03-22 09:22:00,20.7,5.8,29.64,WNW,282,0.0,2.2,52,0.00,,---,0.00,VWS V14.01,2013-03-22 15:22:00,
2013-03-22 09:27:00,21.2,6.8,29.64,NW,314,5.4,5.4,53,0.00,,---,0.00,VWS V14.01,2013-03-22 15:27:00,
2013-03-22 09:32:00,21.2,6.8,29.64,West,272,3.1,4.9,53,0.00,,---,0.00,VWS V14.01,2013-03-22 15:32:00,
2013-03-22 09:37:00,21.2,6.8,29.64,WNW,303,3.1,3.1,53,0.00,,---,0.00,VWS V14.01,2013-03-22 15:37:00,
2013-03-22 09:42:00,21.4,6.9,29.64,WSW,239,4.0,5.4,53,0.00,,---,0.00,VWS V14.01,2013-03-22 15:42:00,
2013-03-22 09:47:00,21.6,7.1,29.64,WNW,285,4.9,6.3,53,0.00,,---,0.00,VWS V14.01,2013-03-22 15:47:00,
2013-03-22 09:52:00,21.9,7.4,29.64,WNW,297,5.4,5.8,53,0.00,,---,0.00,VWS V14.01,2013-03-22 15:52:00,
2013-03-22 09:57:00,22.1,7.6,29.64,WNW,292,5.4,5.8,53,0.00,,---,0.00,VWS V14.01,2013-03-22 15:57:00,
2013-03-22 10:02:00,22.6,7.7,29.64,NW,310,0.0,3.6,52,0.00,,---,0.00,VWS V14.01,2013-03-22 16:02:00,
2013-03-22 10:07:00,23.2,6.4,29.64,WNW,299,4.0,6.3,48,0.00,,---,0.00,VWS V14.01,2013-03-22 16:07:00,
2013-03-22 10:12:00,23.4,5.2,29.64,North,353,6.3,9.6,45,0.00,,---,0.00,VWS V14.01,2013-03-22 16:12:00,
2013-03-22 10:17:00,23.5,5.3,29.64,NW,313,6.3,6.3,45,0.00,,---,0.00,VWS V14.01,2013-03-22 16:17:00,
2013-03-22 10:22:00,23.5,5.3,29.64,WNW,301,7.2,7.2,45,0.00,,---,0.00,VWS V14.01,2013-03-22 16:22:00,
2013-03-22 10:27:00,23.7,5.0,29.64,NW,305,0.0,6.3,44,0.00,,---,0.00,VWS V14.01,2013-03-22 16:27:00,
2013-03-22 10:32:00,24.1,5.3,29.64,WNW,299,3.6,5.8,44,0.00,,---,0.00,VWS V14.01,2013-03-22 16:32:00,
2013-03-22 10:37:00,24.4,5.7,29.64,NW,308,6.3,7.2,44,0.00,,---,0.00,VWS V14.01,2013-03-22 16:37:00,
2013-03-22 10:42:00,24.8,6.0,29.64,NW,320,4.0,4.5,44,0.00,,---,0.00,VWS V14.01,2013-03-22 16:42:00,
2013-03-22 10:47:00,25.2,6.8,29.64,NNE,14,3.6,5.8,45,0.00,,---,0.00,VWS V14.01,2013-03-22 16:47:00,
2013-03-22 10:52:00,25.5,8.1,29.64,NW,313,0.0,3.1,47,0.00,,---,0.00,VWS V14.01,2013-03-22 16:52:00,
2013-03-22 10:57:00,25.3,8.9,29.64,NNE,18,3.1,4.9,49,0.00,,---,0.00,VWS V14.01,2013-03-22 16:57:00,
2013-03-22 11:02:00,25.3,9.8,29.64,NNE,27,2.2,4.0,51,0.00,,---,0.00,VWS V14.01,2013-03-22 17:02:00,
2013-03-22 11:07:00,25.5,10.4,29.64,NE,45,0.0,2.2,52,0.00,,---,0.00,VWS V14.01,2013-03-22 17:07:00,
2013-03-22 11:12:00,26.2,11.0,29.64,North,357,5.4,5.4,52,0.00,,---,0.00,VWS V14.01,2013-03-22 17:12:00,
2013-03-22 11:17:00,26.6,11.4,29.64,NNE,23,6.3,6.3,52,0.00,,---,0.00,VWS V14.01,2013-03-22 17:17:00,
2013-03-22 11:22:00,26.6,11.8,29.64,ENE,58,2.7,7.6,53,0.00,,---,0.00,VWS V14.01,2013-03-22 17:22:00,
2013-03-22 11:27:00,26.8,12.4,29.64,North,353,3.6,3.6,54,0.00,,---,0.00,VWS V14.01,2013-03-22 17:27:00,
2013-03-22 11:32:00,26.8,12.4,29.64,North,353,3.1,3.1,54,0.00,,---,0.00,VWS V14.01,2013-03-22 17:32:00,
2013-03-22 11:37:00,26.8,12.8,29.64,NE,44,0.0,3.6,55,0.00,,---,0.00,VWS V14.01,2013-03-22 17:37:00,
2013-03-22 11:42:00,27.1,13.5,29.64,NNW,340,4.0,4.9,56,0.00,,---,0.00,VWS V14.01,2013-03-22 17:42:00,
2013-03-22 11:47:00,27.5,13.5,29.64,North,357,3.1,4.0,55,0.00,,---,0.00,VWS V14.01,2013-03-22 17:47:00,
2013-03-22 11:53:00,27.0,13.0,29.64,North,357,4.0,4.0,55,0.00,,---,0.00,VWS V14.01,2013-03-22 17:53:00,
2013-03-22 11:58:00,27.7,14.4,29.64,NE,38,3.1,3.1,57,0.00,,---,0.00,VWS V14.01,2013-03-22 17:58:00,
2013-03-22 12:02:00,28.0,14.4,29.64,NNE,27,0.0,0.0,56,0.00,,---,0.00,VWS V14.01,2013-03-22 18:02:00,
2013-03-22 12:08:00,28.9,13.5,29.64,NE,47,2.2,8.1,52,0.00,,---,0.00,VWS V14.01,2013-03-22 18:08:00,
2013-03-22 12:12:00,29.1,12.8,29.64,NNE,28,4.0,5.8,50,0.00,,---,0.00,VWS V14.01,2013-03-22 18:12:00,
2013-03-22 12:17:00,28.9,12.2,29.64,NNE,29,3.6,4.9,49,0.00,,---,0.00,VWS V14.01,2013-03-22 18:17:00,
2013-03-22 12:22:00,29.1,11.9,29.64,NE,42,5.4,5.4,48,0.00,,---,0.00,VWS V14.01,2013-03-22 18:22:00,
2013-03-22 12:27:00,29.8,12.1,29.64,NE,55,2.7,6.3,47,0.00,,---,0.00,VWS V14.01,2013-03-22 18:27:00,
2013-03-22 12:32:00,30.0,11.8,29.64,NE,34,0.0,0.0,46,0.00,,---,0.00,VWS V14.01,2013-03-22 18:32:00,
2013-03-22 12:37:00,29.5,10.3,29.64,East,96,0.0,0.0,44,0.00,,---,0.00,VWS V14.01,2013-03-22 18:37:00,
2013-03-22 12:42:00,28.8,9.6,29.64,NNE,32,2.7,4.0,44,0.00,,---,0.00,VWS V14.01,2013-03-22 18:42:00,
2013-03-22 12:47:00,28.2,9.6,29.64,NE,34,3.6,3.6,45,0.00,,---,0.00,VWS V14.01,2013-03-22 18:47:00,
2013-03-22 12:52:00,27.9,10.3,29.64,NNE,20,5.4,5.4,47,0.00,,---,0.00,VWS V14.01,2013-03-22 18:52:00,
2013-03-22 12:57:00,27.5,12.6,29.64,NE,45,7.6,7.6,53,0.00,,---,0.00,VWS V14.01,2013-03-22 18:57:00,
2013-03-22 13:02:00,27.3,13.3,29.64,NE,34,3.6,5.8,55,0.00,,---,0.00,VWS V14.01,2013-03-22 19:02:00,
2013-03-22 13:07:00,27.0,11.3,29.64,NE,48,3.6,4.0,51,0.00,,---,0.00,VWS V14.01,2013-03-22 19:07:00,
2013-03-22 13:12:00,27.0,11.7,29.64,NE,56,5.8,5.8,52,0.00,,---,0.00,VWS V14.01,2013-03-22 19:12:00,
2013-03-22 13:17:00,27.3,12.0,29.64,NE,55,0.0,3.1,52,0.00,,---,0.00,VWS V14.01,2013-03-22 19:17:00,
2013-03-22 13:22:00,27.7,11.9,29.64,NE,44,0.0,0.0,51,0.00,,---,0.00,VWS V14.01,2013-03-22 19:22:00,
2013-03-22 13:27:00,27.5,9.4,29.64,East,82,2.2,2.2,46,0.00,,---,0.00,VWS V14.01,2013-03-22 19:27:00,
2013-03-22 13:32:00,27.5,9.0,29.64,ENE,77,3.1,4.0,45,0.00,,---,0.00,VWS V14.01,2013-03-22 19:32:00,
2013-03-22 13:37:00,27.9,9.3,29.64,ENE,63,3.1,4.9,45,0.00,,---,0.00,VWS V14.01,2013-03-22 19:37:00,
2013-03-22 13:42:00,28.0,8.9,29.64,East,98,0.0,0.0,44,0.00,,---,0.00,VWS V14.01,2013-03-22 19:42:00,
2013-03-22 13:47:00,28.6,9.9,29.64,ENE,63,4.9,4.9,45,0.00,,---,0.00,VWS V14.01,2013-03-22 19:47:00,
2013-03-22 13:52:00,29.8,10.6,29.64,North,10,0.0,6.3,44,0.00,,---,0.00,VWS V14.01,2013-03-22 19:52:00,
2013-03-22 13:57:00,30.0,9.7,29.64,NE,51,3.6,4.9,42,0.00,,---,0.00,VWS V14.01,2013-03-22 19:57:00,
2013-03-22 14:02:00,29.7,9.4,29.64,NE,39,0.0,4.9,42,0.00,,---,0.00,VWS V14.01,2013-03-22 20:02:00,
2013-03-22 14:07:00,28.9,8.7,29.64,NE,39,3.1,4.9,42,0.00,,---,0.00,VWS V14.01,2013-03-22 20:07:00,
2013-03-22 14:13:00,28.9,9.3,29.64,NNE,29,3.1,5.8,43,0.00,,---,0.00,VWS V14.01,2013-03-22 20:13:00,
2013-03-22 14:18:00,28.9,9.8,29.64,NNE,24,4.9,4.9,44,0.00,,---,0.00,VWS V14.01,2013-03-22 20:18:00,
2013-03-22 14:22:00,28.8,10.6,29.64,NNE,33,0.0,0.0,46,0.00,,---,0.00,VWS V14.01,2013-03-22 20:22:00,
2013-03-22 14:27:00,28.6,10.9,29.64,NNE,18,5.4,5.4,47,0.00,,---,0.00,VWS V14.01,2013-03-22 20:27:00,
2013-03-22 14:32:00,28.6,8.9,29.64,NNE,15,3.6,3.6,43,0.00,,---,0.00,VWS V14.01,2013-03-22 20:32:00,
2013-03-22 14:37:00,28.8,8.6,29.64,NNE,19,0.0,4.9,42,0.00,,---,0.00,VWS V14.01,2013-03-22 20:37:00,
2013-03-22 14:42:00,29.1,8.9,29.64,ENE,58,4.0,6.3,42,0.00,,---,0.00,VWS V14.01,2013-03-22 20:42:00,
2013-03-22 14:47:00,29.5,8.7,29.64,North,1,5.4,5.4,41,0.00,,---,0.00,VWS V14.01,2013-03-22 20:47:00,
2013-03-22 14:52:00,27.3,11.1,29.67,NE,36,3.1,6.3,50,0.00,,---,0.00,VWS V14.01,2013-03-22 20:52:00,
2013-03-22 14:57:00,26.4,13.3,29.67,ENE,62,6.7,6.7,57,0.00,,---,0.00,VWS V14.01,2013-03-22 20:57:00,
2013-03-22 15:03:00,25.5,13.6,29.67,NE,51,5.8,5.8,60,0.00,,---,0.00,VWS V14.01,2013-03-22 21:03:00,
2013-03-22 15:08:00,25.3,14.5,29.67,East,95,5.4,5.8,63,0.00,,---,0.00,VWS V14.01,2013-03-22 21:08:00,
2013-03-22 15:13:00,24.8,14.0,29.67,ESE,108,3.1,5.8,63,0.00,,---,0.00,VWS V14.01,2013-03-22 21:13:00,
2013-03-22 15:18:00,24.6,13.8,29.67,NE,52,3.6,3.6,63,0.00,,---,0.00,VWS V14.01,2013-03-22 21:18:00,
2013-03-22 15:23:00,25.0,14.2,29.67,NE,50,2.7,2.7,63,0.00,,---,0.00,VWS V14.01,2013-03-22 21:23:00,
2013-03-22 15:28:00,25.2,14.4,29.67,ENE,75,0.0,0.0,63,0.00,,---,0.00,VWS V14.01,2013-03-22 21:28:00,
2013-03-22 15:33:00,25.3,14.2,29.67,NE,53,2.2,2.2,62,0.00,,---,0.00,VWS V14.01,2013-03-22 21:33:00,
2013-03-22 15:38:00,25.3,14.9,29.67,ENE,66,0.0,4.0,64,0.00,,---,0.00,VWS V14.01,2013-03-22 21:38:00,
2013-03-22 15:43:00,25.3,14.9,29.67,ESE,121,0.0,5.8,64,0.00,,---,0.00,VWS V14.01,2013-03-22 21:43:00,
2013-03-22 15:48:00,24.1,14.4,29.67,ESE,118,3.1,5.8,66,0.00,,---,0.00,VWS V14.01,2013-03-22 21:48:00,
2013-03-22 15:53:00,23.7,15.4,29.64,ESE,103,2.7,2.7,70,0.00,,---,0.00,VWS V14.01,2013-03-22 21:53:00,
2013-03-22 15:58:00,23.9,15.6,29.64,ESE,112,2.2,3.6,70,0.00,,---,0.00,VWS V14.01,2013-03-22 21:58:00,
2013-03-22 16:03:00,24.4,16.7,29.64,NE,36,0.0,0.0,72,0.00,,---,0.00,VWS V14.01,2013-03-22 22:03:00,
2013-03-22 16:08:00,24.8,17.4,29.67,NNE,33,0.0,0.0,73,0.00,,---,0.00,VWS V14.01,2013-03-22 22:08:00,
2013-03-22 16:13:00,24.8,17.4,29.67,NNE,33,0.0,0.0,73,0.00,,---,0.00,VWS V14.01,2013-03-22 22:13:00,
2013-03-22 16:18:00,24.4,16.4,29.67,NNE,33,0.0,0.0,71,0.00,,---,0.00,VWS V14.01,2013-03-22 22:18:00,
2013-03-22 16:23:00,24.4,16.1,29.67,NNE,33,0.0,0.0,70,0.00,,---,0.00,VWS V14.01,2013-03-22 22:23:00,
2013-03-22 16:28:00,24.4,15.7,29.67,NNE,33,0.0,0.0,69,0.00,,---,0.00,VWS V14.01,2013-03-22 22:28:00,
2013-03-22 16:33:00,23.9,14.2,29.67,WNW,290,4.0,4.0,66,0.00,,---,0.00,VWS V14.01,2013-03-22 22:33:00,
2013-03-22 16:38:00,23.4,12.6,29.67,WNW,301,0.0,4.0,63,0.00,,---,0.00,VWS V14.01,2013-03-22 22:38:00,
2013-03-22 16:43:00,23.2,13.2,29.67,West,265,3.1,3.6,65,0.00,,---,0.00,VWS V14.01,2013-03-22 22:43:00,
2013-03-22 16:48:00,23.5,15.2,29.67,ENE,59,6.3,6.3,70,0.00,,---,0.00,VWS V14.01,2013-03-22 22:48:00,
2013-03-22 16:53:00,23.5,16.2,29.67,ESE,109,4.0,4.0,73,0.00,,---,0.00,VWS V14.01,2013-03-22 22:53:00,
2013-03-22 16:58:00,23.4,16.9,29.67,SE,133,4.9,4.9,76,0.00,,---,0.00,VWS V14.01,2013-03-22 22:58:00,
2013-03-22 17:03:00,23.4,17.5,29.67,NE,56,3.6,5.4,78,0.00,,---,0.00,VWS V14.01,2013-03-22 23:03:00,
2013-03-22 17:08:00,23.7,18.5,29.67,ENE,60,3.6,3.6,80,0.00,,---,0.00,VWS V14.01,2013-03-22 23:08:00,
2013-03-22 17:13:00,24.3,19.3,29.67,NE,55,3.6,5.4,81,0.00,,---,0.00,VWS V14.01,2013-03-22 23:13:00,
2013-03-22 17:18:00,24.6,19.6,29.67,NE,51,4.9,5.8,81,0.00,,---,0.00,VWS V14.01,2013-03-22 23:18:00,
2013-03-22 17:23:00,25.3,20.3,29.67,NE,37,3.6,4.9,81,0.00,,---,0.00,VWS V14.01,2013-03-22 23:23:00,
2013-03-22 17:28:00,25.9,21.1,29.67,NE,40,4.0,4.9,82,0.00,,---,0.00,VWS V14.01,2013-03-22 23:28:00,
2013-03-22 17:33:00,26.6,21.6,29.67,ESE,108,3.1,3.1,81,0.00,,---,0.00,VWS V14.01,2013-03-22 23:33:00,
2013-03-22 17:38:00,27.0,21.6,29.70,ENE,72,4.9,4.9,80,0.00,,---,0.00,VWS V14.01,2013-03-22 23:38:00,
2013-03-22 17:43:00,26.8,19.3,29.70,NE,50,2.7,4.0,73,0.00,,---,0.00,VWS V14.01,2013-03-22 23:43:00,
2013-03-22 17:48:00,26.4,17.3,29.70,NNE,31,4.0,4.0,68,0.00,,---,0.00,VWS V14.01,2013-03-22 23:48:00,
2013-03-22 17:53:00,26.2,15.7,29.67,ENE,73,0.0,3.6,64,0.00,,---,0.00,VWS V14.01,2013-03-22 23:53:00,
2013-03-22 17:58:00,25.9,13.1,29.67,East,83,0.0,0.0,58,0.00,,---,0.00,VWS V14.01,2013-03-22 23:58:00,
2013-03-22 18:03:00,25.7,13.0,29.67,NE,43,2.7,4.0,58,0.00,,---,0.00,VWS V14.01,2013-03-23 00:03:00,
2013-03-22 18:08:00,25.7,13.4,29.70,NE,55,0.0,3.1,59,0.00,,---,0.00,VWS V14.01,2013-03-23 00:08:00,
2013-03-22 18:13:00,25.5,13.2,29.70,ENE,60,0.0,5.4,59,0.00,,---,0.00,VWS V14.01,2013-03-23 00:13:00,
2013-03-22 18:18:00,25.3,13.4,29.70,NNE,33,5.4,5.4,60,0.00,,---,0.00,VWS V14.01,2013-03-23 00:18:00,
2013-03-22 18:22:00,25.3,13.8,29.70,NE,43,0.0,6.3,61,0.00,,---,0.00,VWS V14.01,2013-03-23 00:22:00,
2013-03-22 18:27:00,25.0,13.8,29.70,North,11,5.8,5.8,62,0.00,,---,0.00,VWS V14.01,2013-03-23 00:27:00,
2013-03-22 18:33:00,24.4,14.4,29.70,North,1,4.9,4.9,65,0.00,,---,0.00,VWS V14.01,2013-03-23 00:33:00,
2013-03-22 18:38:00,24.1,14.7,29.70,NNW,346,2.7,4.9,67,0.00,,---,0.00,VWS V14.01,2013-03-23 00:38:00,
2013-03-22 18:43:00,23.5,14.6,29.70,North,3,3.6,4.0,68,0.00,,---,0.00,VWS V14.01,2013-03-23 00:43:00,
2013-03-22 18:48:00,22.8,14.5,29.70,WNW,298,4.9,5.8,70,0.00,,---,0.00,VWS V14.01,2013-03-23 00:48:00,
2013-03-22 18:53:00,21.9,14.0,29.70,NE,36,3.1,3.1,71,0.00,,---,0.00,VWS V14.01,2013-03-23 00:53:00,
2013-03-22 18:58:00,21.6,14.6,29.70,NNW,336,2.2,2.7,74,0.00,,---,0.00,VWS V14.01,2013-03-23 00:58:00,
2013-03-22 19:03:00,21.4,14.4,29.70,North,353,0.0,0.0,74,0.00,,---,0.00,VWS V14.01,2013-03-23 01:03:00,
2013-03-22 19:08:00,21.2,14.8,29.73,NNW,346,0.0,0.0,76,0.00,,---,0.00,VWS V14.01,2013-03-23 01:08:00,
2013-03-22 19:13:00,21.4,15.0,29.73,NNE,17,0.0,0.0,76,0.00,,---,0.00,VWS V14.01,2013-03-23 01:13:00,
2013-03-22 19:18:00,21.2,15.1,29.73,North,353,0.0,0.0,77,0.00,,---,0.00,VWS V14.01,2013-03-23 01:18:00,
2013-03-22 19:23:00,21.4,15.6,29.73,NNE,13,2.7,6.3,78,0.00,,---,0.00,VWS V14.01,2013-03-23 01:23:00,
2013-03-22 19:28:00,21.2,15.7,29.73,NNW,332,5.8,5.8,79,0.00,,---,0.00,VWS V14.01,2013-03-23 01:28:00,
2013-03-22 19:33:00,21.2,15.7,29.73,NNW,348,0.0,0.0,79,0.00,,---,0.00,VWS V14.01,2013-03-23 01:33:00,
2013-03-22 19:38:00,21.2,15.7,29.73,NNW,328,0.0,3.1,79,0.00,,---,0.00,VWS V14.01,2013-03-23 01:38:00,
2013-03-22 19:43:00,21.0,15.5,29.73,NNW,327,0.0,3.6,79,0.00,,---,0.00,VWS V14.01,2013-03-23 01:43:00,
2013-03-22 19:48:00,21.0,15.5,29.73,NE,34,0.0,0.0,79,0.00,,---,0.00,VWS V14.01,2013-03-23 01:48:00,
2013-03-22 19:53:00,21.0,15.5,29.73,North,357,0.0,0.0,79,0.00,,---,0.00,VWS V14.01,2013-03-23 01:53:00,
2013-03-22 19:58:00,21.0,15.5,29.73,NNE,12,0.0,0.0,79,0.00,,---,0.00,VWS V14.01,2013-03-23 01:58:00,
2013-03-22 20:03:00,20.8,15.4,29.73,NNW,344,4.0,4.0,79,0.00,,---,0.00,VWS V14.01,2013-03-23 02:03:00,
2013-03-22 20:08:00,20.7,14.9,29.73,NE,41,3.1,3.1,78,0.00,,---,0.00,VWS V14.01,2013-03-23 02:08:00,
2013-03-22 20:13:00,20.5,14.4,29.73,NW,326,3.6,7.2,77,0.00,,---,0.00,VWS V14.01,2013-03-23 02:13:00,
2013-03-22 20:18:00,20.5,13.8,29.73,NW,319,2.7,5.4,75,0.00,,---,0.00,VWS V14.01,2013-03-23 02:18:00,
2013-03-22 20:23:00,20.3,13.0,29.73,NW,317,5.4,8.1,73,0.00,,---,0.00,VWS V14.01,2013-03-23 02:23:00,
2013-03-22 20:28:00,20.3,12.4,29.73,NW,322,2.7,6.3,71,0.00,,---,0.00,VWS V14.01,2013-03-23 02:28:00,
2013-03-22 20:33:00,20.3,12.1,29.73,North,0,7.6,7.6,70,0.00,,---,0.00,VWS V14.01,2013-03-23 02:33:00,
2013-03-22 20:38:00,20.3,11.4,29.73,NNW,336,5.4,8.3,68,0.00,,---,0.00,VWS V14.01,2013-03-23 02:38:00,
2013-03-22 20:43:00,20.3,11.1,29.73,NNW,334,8.1,8.1,67,0.00,,---,0.00,VWS V14.01,2013-03-23 02:43:00,
2013-03-22 20:48:00,20.1,10.6,29.73,North,0,5.4,6.3,66,0.00,,---,0.00,VWS V14.01,2013-03-23 02:48:00,
2013-03-22 20:53:00,20.1,10.3,29.76,NNW,331,3.6,3.6,65,0.00,,---,0.00,VWS V14.01,2013-03-23 02:53:00,
2013-03-22 20:58:00,20.1,9.9,29.76,NW,321,7.6,8.7,64,0.00,,---,0.00,VWS V14.01,2013-03-23 02:58:00,
2013-03-22 21:03:00,20.1,9.9,29.76,NNW,336,10.1,10.1,64,0.00,,---,0.00,VWS V14.01,2013-03-23 03:03:00,
2013-03-22 21:08:00,20.1,9.2,29.76,NW,311,5.8,10.5,62,0.00,,---,0.00,VWS V14.01,2013-03-23 03:08:00,
2013-03-22 21:13:00,20.1,8.8,29.76,NW,326,7.6,10.1,61,0.00,,---,0.00,VWS V14.01,2013-03-23 03:13:00,
2013-03-22 21:18:00,19.9,8.7,29.76,NNW,331,8.1,8.1,61,0.00,,---,0.00,VWS V14.01,2013-03-23 03:18:00,
2013-03-22 21:23:00,19.9,8.7,29.76,NNW,333,3.1,3.1,61,0.00,,---,0.00,VWS V14.01,2013-03-23 03:23:00,
2013-03-22 21:28:00,19.9,9.0,29.76,NW,325,8.3,8.3,62,0.00,,---,0.00,VWS V14.01,2013-03-23 03:28:00,
2013-03-22 21:33:00,19.9,8.7,29.76,NW,326,4.0,4.0,61,0.00,,---,0.00,VWS V14.01,2013-03-23 03:33:00,
2013-03-22 21:38:00,19.9,8.7,29.76,NNW,331,4.0,6.3,61,0.00,,---,0.00,VWS V14.01,2013-03-23 03:38:00,
2013-03-22 21:43:00,19.9,8.3,29.76,NW,314,2.2,2.2,60,0.00,,---,0.00,VWS V14.01,2013-03-23 03:43:00,
2013-03-22 21:48:00,19.9,8.3,29.76,NW,317,0.0,4.0,60,0.00,,---,0.00,VWS V14.01,2013-03-23 03:48:00,
2013-03-22 21:53:00,19.8,7.8,29.76,North,353,3.6,4.9,59,0.00,,---,0.00,VWS V14.01,2013-03-23 03:53:00,
2013-03-22 21:58:00,19.8,7.8,29.76,NNW,340,0.0,0.0,59,0.00,,---,0.00,VWS V14.01,2013-03-23 03:58:00,
2013-03-22 22:00:00,19.8,7.8,29.76,NNW,339,0.0,0.0,59,0.00,,---,0.00,VWS V14.01,2013-03-23 04:00:00,
2013-03-22 22:05:00,19.6,7.2,29.76,NNE,27,0.0,0.0,58,0.00,,---,0.00,VWS V14.01,2013-03-23 04:05:00,
2013-03-22 22:10:00,19.6,7.2,29.76,North,350,3.6,3.6,58,0.00,,---,0.00,VWS V14.01,2013-03-23 04:10:00,
2013-03-22 22:15:00,19.4,7.1,29.76,NW,322,2.7,4.0,58,0.00,,---,0.00,VWS V14.01,2013-03-23 04:15:00,
2013-03-22 22:20:00,19.2,6.9,29.79,NW,315,0.0,4.0,58,0.00,,---,0.00,VWS V14.01,2013-03-23 04:20:00,
2013-03-22 22:25:00,19.0,6.7,29.79,West,278,0.0,0.0,58,0.00,,---,0.00,VWS V14.01,2013-03-23 04:25:00,
2013-03-22 22:30:00,19.0,6.3,29.79,NW,304,2.2,4.0,57,0.00,,---,0.00,VWS V14.01,2013-03-23 04:30:00,
2013-03-22 22:35:00,18.9,6.2,29.79,NNW,327,0.0,4.0,57,0.00,,---,0.00,VWS V14.01,2013-03-23 04:35:00,
2013-03-22 22:40:00,18.9,6.2,29.79,North,0,0.0,2.7,57,0.00,,---,0.00,VWS V14.01,2013-03-23 04:40:00,
2013-03-22 22:45:00,19.0,6.3,29.79,NNW,334,4.0,4.0,57,0.00,,---,0.00,VWS V14.01,2013-03-23 04:45:00,
2013-03-22 22:50:00,19.0,6.3,29.79,NW,324,0.0,4.5,57,0.00,,---,0.00,VWS V14.01,2013-03-23 04:50:00,
2013-03-22 22:55:00,19.0,5.9,29.79,NNW,338,3.6,3.6,56,0.00,,---,0.00,VWS V14.01,2013-03-23 04:55:00,
2013-03-22 23:00:00,19.0,6.3,29.79,NW,313,2.7,2.7,57,0.00,,---,0.00,VWS V14.01,2013-03-23 05:00:00,
2013-03-22 23:05:00,18.9,6.5,29.76,NW,324,0.0,0.0,58,0.00,,---,0.00,VWS V14.01,2013-03-23 05:05:00,
2013-03-22 23:10:00,18.7,6.0,29.76,NW,324,0.0,0.0,57,0.00,,---,0.00,VWS V14.01,2013-03-23 05:10:00,
2013-03-22 23:15:00,18.7,6.0,29.76,NW,324,0.0,0.0,57,0.00,,---,0.00,VWS V14.01,2013-03-23 05:15:00,
2013-03-22 23:20:00,18.7,6.4,29.76,NW,324,0.0,0.0,58,0.00,,---,0.00,VWS V14.01,2013-03-23 05:20:00,
2013-03-22 23:25:00,18.7,6.4,29.76,NW,324,0.0,0.0,58,0.00,,---,0.00,VWS V14.01,2013-03-23 05:25:00,
2013-03-22 23:30:00,18.7,6.7,29.76,North,11,0.0,0.0,59,0.00,,---,0.00,VWS V14.01,2013-03-23 05:30:00,
2013-03-22 23:35:00,18.7,6.4,29.79,NNE,25,0.0,0.0,58,0.00,,---,0.00,VWS V14.01,2013-03-23 05:35:00,
2013-03-22 23:40:00,18.7,6.4,29.79,NE,41,0.0,0.0,58,0.00,,---,0.00,VWS V14.01,2013-03-23 05:40:00,
2013-03-22 23:45:00,18.5,6.2,29.79,ENE,57,0.0,0.0,58,0.00,,---,0.00,VWS V14.01,2013-03-23 05:45:00,
2013-03-22 23:50:00,18.3,5.7,29.79,ENE,76,5.8,5.8,57,0.00,,---,0.00,VWS V14.01,2013-03-23 05:50:00,
2013-03-22 23:55:00,18.3,5.7,29.79,NW,315,3.6,3.6,57,0.00,,---,0.00,VWS V14.01,2013-03-23 05:55:00,